When you browse on this site, cookies collect data to enhance your experience and personalize the content and advertising you see.
Visit our Privacy Policy to learn more. By continuing to use the site, you agree to this use of cookies and data.
  • In Hungary
  • List of Countries
  • For 7 days
  • Water Temperature
  • Satellite Maps
  • Weather Map
  • News
  • Weather Widgets
  • user-avatar
    Login

    Hourly Weather Alcamo

    Today, 14 December, Friday

    Time Temperature Precipitation Wind Pressure Humidity
    00:00 +12°C° 0 mm 5 mps 743 mmHg 87%
    01:00 +12°C° 0 mm 5 mps 743 mmHg 86%
    02:00 +12°C° 0 mm 5 mps 743 mmHg 86%
    03:00 +11°C° 0 mm 6 mps 742 mmHg 86%
    04:00 +11°C° 0 mm 6 mps 742 mmHg 86%
    05:00 +11°C° 0 mm 6 mps 742 mmHg 86%
    06:00 +11°C° 0 mm 6 mps 741 mmHg 85%
    07:00 +11°C° 0 mm 6 mps 741 mmHg 84%
    08:00 +13°C° 0 mm 6 mps 741 mmHg 79%
    09:00 +14°C° 0 mm 6 mps 741 mmHg 75%
    10:00 +15°C° 0 mm 6 mps 741 mmHg 70%
    11:00 +16°C° 0 mm 6 mps 741 mmHg 67%
    12:00 +16°C° 0 mm 5 mps 741 mmHg 64%
    13:00 +17°C° 0 mm 5 mps 741 mmHg 61%
    14:00 +17°C° 0 mm 4 mps 740 mmHg 64%
    15:00 +17°C° 0 mm 4 mps 740 mmHg 66%
    16:00 +16°C° 0 mm 3 mps 740 mmHg 69%
    17:00 +16°C° 0.2 mm 3 mps 740 mmHg 71%
    18:00 +14°C° 0.2 mm 3 mps 740 mmHg 73%
    19:00 +13°C° 0.2 mm 3 mps 740 mmHg 75%
    20:00 +14°C° 0.3 mm 2 mps 741 mmHg 77%
    21:00 +14°C° 0.3 mm 2 mps 741 mmHg 78%
    22:00 +13°C° 0.3 mm 2 mps 741 mmHg 80%
    23:00 +13°C° 0.1 mm 2 mps 741 mmHg 81%

    Tomorrow, 15 December, Saturday

    Time Temperature Precipitation Wind Pressure Humidity
    00:00 +13°C° 0.1 mm 2 mps 741 mmHg 82%
    01:00 +12°C° 0.1 mm 2 mps 741 mmHg 83%
    02:00 +12°C° 0.1 mm 2 mps 741 mmHg 84%
    03:00 +12°C° 0.1 mm 2 mps 742 mmHg 85%
    04:00 +11°C° 0.1 mm 3 mps 742 mmHg 86%
    05:00 +11°C° 0.1 mm 3 mps 742 mmHg 86%
    06:00 +11°C° 0.1 mm 3 mps 742 mmHg 86%
    07:00 +11°C° 0.1 mm 3 mps 743 mmHg 87%
    08:00 +12°C° 0.2 mm 4 mps 743 mmHg 85%
    09:00 +13°C° 0.2 mm 6 mps 744 mmHg 83%
    10:00 +12°C° 0.2 mm 7 mps 745 mmHg 81%
    11:00 +12°C° 0.1 mm 7 mps 745 mmHg 80%
    12:00 +12°C° 0.1 mm 8 mps 745 mmHg 79%
    13:00 +11°C° 0.1 mm 9 mps 745 mmHg 79%
    14:00 +11°C° 0 mm 9 mps 745 mmHg 77%
    15:00 +10°C° 0 mm 9 mps 745 mmHg 74%
    16:00 +10°C° 0 mm 9 mps 746 mmHg 72%
    17:00 +10°C° 0 mm 9 mps 746 mmHg 73%
    18:00 +9°C° 0 mm 8 mps 747 mmHg 73%
    19:00 +9°C° 0 mm 8 mps 747 mmHg 74%
    20:00 +7°C° 0 mm 8 mps 747 mmHg 74%
    21:00 +7°C° 0 mm 8 mps 748 mmHg 74%
    22:00 +8°C° 0 mm 7 mps 748 mmHg 75%
    23:00 +8°C° 0 mm 7 mps 748 mmHg 75%

    Day after tomorrow, 16 December, Sunday

    Time Temperature Precipitation Wind Pressure Humidity
    00:00 +8°C° 0 mm 7 mps 748 mmHg 75%
    01:00 +8°C° 0 mm 7 mps 748 mmHg 75%
    02:00 +8°C° 0 mm 7 mps 748 mmHg 75%
    03:00 +8°C° 0 mm 7 mps 749 mmHg 76%
    04:00 +8°C° 0 mm 7 mps 749 mmHg 77%
    05:00 +8°C° 0 mm 6 mps 749 mmHg 77%
    06:00 +8°C° 0 mm 6 mps 749 mmHg 77%
    07:00 +7°C° 0 mm 5 mps 750 mmHg 77%
    08:00 +8°C° 0 mm 5 mps 750 mmHg 73%
    09:00 +9°C° 0 mm 5 mps 750 mmHg 68%
    10:00 +10°C° 0 mm 5 mps 751 mmHg 64%
    11:00 +12°C° 0 mm 4 mps 751 mmHg 61%
    12:00 +12°C° 0 mm 4 mps 751 mmHg 59%
    13:00 +13°C° 0 mm 4 mps 751 mmHg 56%
    14:00 +13°C° 0 mm 4 mps 751 mmHg 59%
    15:00 +12°C° 0 mm 3 mps 751 mmHg 61%
    16:00 +12°C° 0 mm 3 mps 751 mmHg 63%
    17:00 +11°C° 0 mm 3 mps 751 mmHg 66%
    18:00 +12°C° 0 mm 2 mps 751 mmHg 69%
    19:00 +10°C° 0 mm 2 mps 751 mmHg 72%
    20:00 +10°C° 0 mm 2 mps 751 mmHg 72%
    21:00 +10°C° 0 mm 3 mps 752 mmHg 72%
    22:00 +10°C° 0 mm 3 mps 752 mmHg 72%
    23:00 +11°C° 0 mm 3 mps 751 mmHg 76%

    17 December, Monday

    Time Temperature Precipitation Wind Pressure Humidity
    00:00 +11°C° 0 mm 3 mps 751 mmHg 79%
    01:00 +11°C° 0 mm 4 mps 751 mmHg 82%
    02:00 +11°C° 0 mm 4 mps 751 mmHg 84%
    03:00 +11°C° 0 mm 4 mps 751 mmHg 86%
    04:00 +11°C° 0 mm 4 mps 750 mmHg 88%
    05:00 +11°C° 0 mm 4 mps 750 mmHg 88%
    06:00 +11°C° 0 mm 4 mps 750 mmHg 88%
    07:00 +11°C° 0 mm 4 mps 750 mmHg 88%
    08:00 +12°C° 0 mm 4 mps 751 mmHg 87%
    09:00 +13°C° 0 mm 5 mps 751 mmHg 85%
    10:00 +14°C° 0 mm 5 mps 751 mmHg 84%
    11:00 +15°C° 0 mm 5 mps 751 mmHg 82%
    12:00 +15°C° 0 mm 6 mps 751 mmHg 80%
    13:00 +15°C° 0 mm 6 mps 751 mmHg 78%
    14:00 +15°C° 0.1 mm 6 mps 751 mmHg 79%
    15:00 +15°C° 0.1 mm 6 mps 750 mmHg 80%
    16:00 +14°C° 0.1 mm 6 mps 750 mmHg 80%
    17:00 +14°C° 0.1 mm 5 mps 751 mmHg 83%
    18:00 +13°C° 0.1 mm 5 mps 751 mmHg 86%
    19:00 +12°C° 0.1 mm 5 mps 751 mmHg 89%
    20:00 +12°C° 0.2 mm 5 mps 751 mmHg 87%
    21:00 +12°C° 0.2 mm 5 mps 752 mmHg 86%
    22:00 +12°C° 0.2 mm 5 mps 752 mmHg 85%
    23:00 +10°C° 0.3 mm 6 mps 752 mmHg 84%

    18 December, Tuesday

    Time Temperature Precipitation Wind Pressure Humidity
    00:00 +10°C° 0.3 mm 6 mps 752 mmHg 83%
    01:00 +10°C° 0.3 mm 6 mps 752 mmHg 82%
    02:00 +10°C° 0.2 mm 6 mps 752 mmHg 81%
    03:00 +9°C° 0.2 mm 6 mps 752 mmHg 80%
    04:00 +9°C° 0.2 mm 7 mps 751 mmHg 79%
    05:00 +9°C° 0.1 mm 7 mps 752 mmHg 79%
    06:00 +9°C° 0.1 mm 7 mps 752 mmHg 79%
    07:00 +9°C° 0.1 mm 7 mps 752 mmHg 80%
    08:00 +10°C° 0.1 mm 7 mps 753 mmHg 78%
    09:00 +10°C° 0.1 mm 8 mps 753 mmHg 76%
    10:00 +11°C° 0.1 mm 8 mps 754 mmHg 74%
    11:00 +11°C° 0.1 mm 8 mps 754 mmHg 73%
    12:00 +12°C° 0.1 mm 8 mps 754 mmHg 72%
    13:00 +12°C° 0.1 mm 7 mps 754 mmHg 72%
    14:00 +13°C° 0 mm 6 mps 754 mmHg 70%
    15:00 +11°C° 0 mm 6 mps 754 mmHg 69%
    16:00 +12°C° 0 mm 5 mps 754 mmHg 67%
    17:00 +11°C° 0 mm 4 mps 754 mmHg 68%
    18:00 +10°C° 0 mm 4 mps 755 mmHg 70%
    19:00 +10°C° 0 mm 3 mps 755 mmHg 71%
    20:00 +9°C° 0 mm 3 mps 755 mmHg 73%
    21:00 +9°C° 0 mm 3 mps 755 mmHg 75%
    22:00 +9°C° 0 mm 3 mps 756 mmHg 77%
    23:00 +9°C° 0 mm 2 mps 756 mmHg 78%

    19 December, Wednesday

    Time Temperature Precipitation Wind Pressure Humidity
    00:00 +9°C° 0 mm 2 mps 756 mmHg 79%
    01:00 +8°C° 0 mm 2 mps 756 mmHg 80%
    02:00 +9°C° 0 mm 1 mps 755 mmHg 80%
    03:00 +9°C° 0 mm 1 mps 755 mmHg 80%
    04:00 +9°C° 0 mm 1 mps 755 mmHg 81%
    05:00 +9°C° 0 mm 1 mps 755 mmHg 79%
    06:00 +9°C° 0 mm 1 mps 755 mmHg 78%
    07:00 +9°C° 0 mm 1 mps 755 mmHg 77%
    08:00 +10°C° 0 mm 1 mps 755 mmHg 71%
    09:00 +12°C° 0 mm 1 mps 755 mmHg 64%
    10:00 +13°C° 0 mm 2 mps 756 mmHg 57%
    11:00 +14°C° 0 mm 2 mps 755 mmHg 55%
    12:00 +15°C° 0 mm 2 mps 755 mmHg 52%
    13:00 +16°C° 0 mm 3 mps 754 mmHg 49%
    14:00 +14°C° 0 mm 3 mps 754 mmHg 54%
    15:00 +13°C° 0 mm 3 mps 754 mmHg 58%
    16:00 +13°C° 0 mm 3 mps 753 mmHg 63%
    17:00 +12°C° 0 mm 4 mps 753 mmHg 65%
    18:00 +11°C° 0 mm 4 mps 753 mmHg 68%
    19:00 +9°C° 0 mm 5 mps 753 mmHg 70%
    20:00 +9°C° 0 mm 5 mps 753 mmHg 72%
    21:00 +9°C° 0 mm 5 mps 753 mmHg 73%
    22:00 +9°C° 0 mm 5 mps 753 mmHg 74%
    23:00 +10°C° 0 mm 5 mps 752 mmHg 78%
    Show more